Content
SEND FEEDBACK

Daily
Averages
Monthly
Summary
United States of America

ORLINDA, TENNESSEE


Home > North America > United States > Tennessee
Elevation: 72 feet     Latitude: 36 36N     Longitude: 086 43W

WEATHER
 
SELECT A DAY
Number of Records: 205,500;   Date Range: 1/1/95 - 7/28/14
 
SHARE

PRINT THIS DATA

[ ← Previous Day ]
WEATHER ALMANAC - JANUARY 23, 2013
[ Next Day → ]
[ °C ]   °F
Weather ElementAverageHighLow
Temperature33 °F46 °F (2:53 pm)18 °F (6:53 am)
Dewpoint17 °F27 °F (9:53 pm)7 °F (1:53 am)
Humidity53.5 %74 % (6:53 am)34 % (10:53 am)
Barometer30.28 in30.41 in (1:53 am)30.16 in (5:53 pm)
Wind Speed4 mph12.7 mph (1:53 pm)
Wind Gust17.3 mph (12:53 pm)
Weather ElementAverage
Visibility10 mi
Wind DirectionSE (130.9 °)

Weather ElementTotal
Precipitation---
Heating Degree Days33 (Base 65)
Averaged from 23 records on January 23, 2013
WEATHER CONDITIONS BREAKOUT
WIND DIRECTION BREAKOUT
WEATHER BY HOUR - JANUARY 23, 2013
[ °C ]   °F
Local TimeTemperatureDewpointHumidityBarometerVisibilityWind DirectionWind SpeedGust SpeedPrecipitationEventsConditions
1:53 AM21.9 °F7.0 °F53 %30.41 in10.0 miCalmClear
2:53 AM21.0 °F8.1 °F57 %30.40 in10.0 miCalmScattered Clouds
3:53 AM19.9 °F8.1 °F60 %30.40 in10.0 miCalmClear
4:53 AM19.0 °F10.0 °F68 %30.40 inCalmClear
5:53 AM19.0 °F10.9 °F71 %30.41 inCalmClear
6:53 AM18.0 °F10.9 °F74 %30.40 inCalmClear
7:53 AM21.0 °F12.9 °F71 %30.40 inCalmClear
8:53 AM26.1 °F10.0 °F51 %30.40 inSSE (150°)4.6 mphClear
9:53 AM30.9 °F8.1 °F38 %30.39 inSouth (180°)4.6 mphClear
10:53 AM36.0 °F10.0 °F34 %30.35 inSouth (170°)5.8 mphClear
11:53 AM39.0 °F12.9 °F34 %30.29 inSSW (210°)9.2 mphClear
12:53 PM42.1 °F17.1 °F37 %30.25 inSW (230°)9.2 mph17.3 mphClear
1:53 PM44.1 °F19.0 °F37 %30.22 inSW (220°)12.7 mphClear
2:53 PM46.0 °F21.9 °F39 %30.20 inSW (230°)8.1 mphClear
3:53 PM46.0 °F23.0 °F40 %30.18 inWSW (240°)8.1 mphClear
4:53 PM43.0 °F23.0 °F45 %30.17 inWSW (240°)5.8 mphClear
5:53 PM41.0 °F24.1 °F51 %30.16 inCalmClear
6:53 PM37.9 °F24.1 °F57 %30.16 inCalmClear
7:53 PM37.9 °F24.1 °F57 %30.16 inWSW (240°)4.6 mphPartly Cloudy
8:53 PM36.0 °F24.1 °F62 %30.18 inCalmClear
9:53 PM37.9 °F27.0 °F65 %30.19 inWNW (290°)5.8 mphClear
10:53 PM39.0 °F27.0 °F62 %30.21 inNW (310°)6.9 mphClear
11:53 PM37.0 °F27.0 °F67 %30.22 inWNW (300°)5.8 mphClear
Hourly data recorded from KBWG, located miles away from Orlinda, Tennessee







STORIES FROM OUR PARTNERS